| time (UTC) | temp F | wind direction | speed knots | gust knots | rain 1hr in | rain 24hr in | rain mn in | humidity % | barometer mb |
| 20260508170847 | 62 | 285 | 0.0 | 0.9 | 0.00 | 0.00 | 0.00 | 52 | |
| 20260508170346 | 62 | 198 | 1.7 | 4.3 | 0.00 | 0.00 | 0.00 | 52 | |
| 20260508165842 | 63 | 235 | 0.9 | 2.6 | 0.00 | 0.00 | 0.00 | 51 | |
| 20260508165340 | 63 | 231 | 2.6 | 5.2 | 0.00 | 0.00 | 0.00 | 49 | |
| 20260508164835 | 64 | 233 | 0.9 | 7.8 | 0.00 | 0.00 | 0.00 | 50 | |
| 20260508164332 | 64 | 221 | 0.9 | 1.7 | 0.00 | 0.00 | 0.00 | 50 | |
| 20260508163830 | 62 | 251 | 0.9 | 4.3 | 0.00 | 0.00 | 0.00 | 51 | |
| 20260508163328 | 63 | 270 | 0.0 | 5.2 | 0.00 | 0.00 | 0.00 | 51 | |
| 20260508162823 | 64 | 251 | 0.0 | 0.0 | 0.00 | 0.00 | 0.00 | 51 | |
| 20260508162320 | 63 | 291 | 0.0 | 1.7 | 0.00 | 0.00 | 0.00 | 51 | |
| 20260508161817 | 65 | 299 | 0.9 | 1.7 | 0.00 | 0.00 | 0.00 | 49 | |
| 20260508161314 | 65 | 265 | 0.0 | 0.9 | 0.00 | 0.00 | 0.00 | 50 | |
| 20260508160812 | 64 | 264 | 0.0 | 2.6 | 0.00 | 0.00 | 0.00 | 50 | |
| 20260508160310 | 62 | 245 | 0.0 | 0.0 | 0.00 | 0.00 | 0.00 | 52 | |
| 20260508155806 | 62 | 227 | 0.0 | 0.9 | 0.00 | 0.00 | 0.00 | 51 | |
| 20260508155306 | 61 | 256 | 0.9 | 1.7 | 0.00 | 0.00 | 0.00 | 53 | |
| 20260508154800 | 61 | 286 | 0.0 | 0.9 | 0.00 | 0.00 | 0.00 | 54 | |
| 20260508154258 | 60 | 264 | 0.0 | 2.6 | 0.00 | 0.00 | 0.00 | 53 | |
| 20260508153754 | 59 | 242 | 0.0 | 1.7 | 0.00 | 0.00 | 0.00 | 54 | |
| 20260508153252 | 60 | 306 | 0.9 | 2.6 | 0.00 | 0.00 | 0.00 | 53 | |
| 20260508152748 | 59 | 238 | 0.9 | 2.6 | 0.00 | 0.00 | 0.00 | 55 | |
| 20260508152244 | 59 | 346 | 0.0 | 0.9 | 0.00 | 0.00 | 0.00 | 53 | |
| 20260508151740 | 59 | 326 | 0.0 | 2.6 | 0.00 | 0.00 | 0.00 | 53 | |
| 20260508151237 | 58 | 301 | 0.0 | 2.6 | 0.00 | 0.00 | 0.00 | 54 | |
| 20260508150734 | 58 | 282 | 1.7 | 2.6 | 0.00 | 0.00 | 0.00 | 54 | |
| 20260508150231 | 57 | 307 | 0.9 | 4.3 | 0.00 | 0.00 | 0.00 | 54 | |
| 20260508145726 | 57 | 324 | 0.9 | 1.7 | 0.00 | 0.00 | 0.00 | 57 | |
| 20260508145223 | 56 | 283 | 0.0 | 2.6 | 0.00 | 0.00 | 0.00 | 59 | |
| 20260508144720 | 56 | 212 | 0.0 | 0.9 | 0.00 | 0.00 | 0.00 | 61 | |
| 20260508144218 | 56 | 288 | 0.0 | 0.9 | 0.00 | 0.00 | 0.00 | 61 | |
| 20260508143715 | 55 | 214 | 0.0 | 0.0 | 0.00 | 0.00 | 0.00 | 62 | |
| 20260508143212 | 55 | 209 | 0.0 | 0.9 | 0.00 | 0.00 | 0.00 | 62 | |
| 20260508142708 | 54 | 286 | 0.0 | 0.0 | 0.00 | 0.00 | 0.00 | 63 | |
| 20260508142205 | 54 | 323 | 0.0 | 0.9 | 0.00 | 0.00 | 0.00 | 62 | |
| 20260508141702 | 54 | 215 | 0.0 | 0.9 | 0.00 | 0.00 | 0.00 | 62 | |
| 20260508141159 | 54 | 309 | 0.0 | 2.6 | 0.00 | 0.00 | 0.00 | 62 | |
| 20260508140657 | 54 | 211 | 0.0 | 0.0 | 0.00 | 0.00 | 0.00 | 62 | |
| 20260508140153 | 54 | 240 | 1.7 | 4.3 | 0.00 | 0.00 | 0.00 | 61 | |
| 20260508135650 | 54 | 272 | 0.0 | 1.7 | 0.00 | 0.00 | 0.00 | 61 | |
| 20260508135145 | 54 | 208 | 0.0 | 0.9 | 0.00 | 0.00 | 0.00 | 61 | |
| 20260508134642 | 54 | 257 | 0.0 | 1.7 | 0.00 | 0.00 | 0.00 | 60 | |
| 20260508134139 | 54 | 274 | 0.0 | 1.7 | 0.00 | 0.00 | 0.00 | 60 | |
| 20260508133636 | 54 | 235 | 0.0 | 1.7 | 0.00 | 0.00 | 0.00 | 60 | |
| 20260508133133 | 54 | 321 | 0.0 | 4.3 | 0.00 | 0.00 | 0.00 | 60 | |
| 20260508132631 | 54 | 257 | 0.0 | 4.3 | 0.00 | 0.00 | 0.00 | 60 | |
| 20260508132127 | 54 | 306 | 0.0 | 1.7 | 0.00 | 0.00 | 0.00 | 60 | |
| 20260508131623 | 54 | 285 | 0.9 | 1.7 | 0.00 | 0.00 | 0.00 | 59 | |
| 20260508131120 | 54 | 238 | 0.0 | 2.6 | 0.00 | 0.00 | 0.00 | 59 | |
| 20260508130617 | 54 | 208 | 0.0 | 1.7 | 0.00 | 0.00 | 0.00 | 59 | |
| 20260508130113 | 54 | 246 | 0.9 | 5.2 | 0.00 | 0.00 | 0.00 | 60 | |
| 20260508125608 | 54 | 245 | 0.0 | 4.3 | 0.00 | 0.00 | 0.00 | 60 | |
| 20260508125106 | 53 | 260 | 0.0 | 0.9 | 0.00 | 0.00 | 0.00 | 61 | |
| 20260508124604 | 52 | 326 | 0.0 | 0.0 | 0.00 | 0.00 | 0.00 | 63 | |
| 20260508124101 | 51 | 237 | 0.0 | 2.6 | 0.00 | 0.00 | 0.00 | 63 | |
| 20260508123559 | 51 | 194 | 0.9 | 4.3 | 0.00 | 0.00 | 0.00 | 63 | |
| 20260508123056 | 51 | 256 | 0.0 | 1.7 | 0.00 | 0.00 | 0.00 | 64 | |
| 20260508122552 | 51 | 216 | 0.0 | 0.0 | 0.00 | 0.00 | 0.00 | 65 | |
| 20260508122049 | 50 | 272 | 0.0 | 0.0 | 0.00 | 0.00 | 0.00 | 65 | |
| 20260508121548 | 50 | 220 | 0.0 | 0.0 | 0.00 | 0.00 | 0.00 | 65 | |
| 20260508121045 | 50 | 220 | 0.0 | 0.9 | 0.00 | 0.00 | 0.00 | 66 | |
| 20260508120543 | 49 | 265 | 0.0 | 0.0 | 0.00 | 0.00 | 0.00 | 66 | |
| 20260508120041 | 49 | 216 | 0.9 | 1.7 | 0.00 | 0.00 | 0.00 | 67 | |
| 20260508115538 | 49 | 255 | 0.0 | 0.9 | 0.00 | 0.00 | 0.00 | 67 | |
| 20260508115034 | 49 | 226 | 0.9 | 4.3 | 0.00 | 0.00 | 0.00 | 66 | |
| 20260508114532 | 49 | 240 | 0.0 | 2.6 | 0.00 | 0.00 | 0.00 | 66 | |
| 20260508114028 | 49 | 283 | 0.0 | 4.3 | 0.00 | 0.00 | 0.00 | 66 | |
| 20260508113526 | 49 | 224 | 0.0 | 1.7 | 0.00 | 0.00 | 0.00 | 67 | |
| 20260508113023 | 49 | 236 | 0.0 | 0.0 | 0.00 | 0.00 | 0.00 | 68 | |
| 20260508112519 | 49 | 193 | 0.0 | 2.6 | 0.00 | 0.00 | 0.00 | 67 | |
| 20260508112016 | 48 | 249 | 0.9 | 2.6 | 0.00 | 0.00 | 0.00 | 67 | |
| 20260508111513 | 48 | 237 | 0.0 | 0.9 | 0.00 | 0.00 | 0.00 | 67 | |
| 20260508111010 | 48 | 251 | 0.0 | 0.0 | 0.00 | 0.00 | 0.00 | 68 | |
| 20260508110508 | 47 | 227 | 0.0 | 1.7 | 0.00 | 0.00 | 0.00 | 68 | |
| 20260508110003 | 47 | 208 | 0.0 | 0.0 | 0.00 | 0.00 | 0.00 | 68 | |
| 20260508105459 | 47 | 273 | 0.0 | 0.0 | 0.00 | 0.00 | 0.00 | 69 | |
| 20260508104956 | 47 | 268 | 0.0 | 0.9 | 0.00 | 0.00 | 0.00 | 69 | |
| 20260508104454 | 47 | 237 | 0.0 | 0.0 | 0.00 | 0.00 | 0.00 | 69 | |
| 20260508103950 | 47 | 211 | 0.0 | 0.0 | 0.00 | 0.00 | 0.00 | 69 | |
| 20260508103447 | 46 | 250 | 0.0 | 0.0 | 0.00 | 0.00 | 0.00 | 69 | |
| 20260508102944 | 46 | 229 | 0.0 | 0.9 | 0.00 | 0.00 | 0.00 | 70 | |
| 20260508102443 | 46 | 218 | 0.0 | 0.0 | 0.00 | 0.00 | 0.00 | 70 | |
| 20260508101939 | 46 | 242 | 0.0 | 0.0 | 0.00 | 0.00 | 0.00 | 71 | |
| 20260508101437 | 46 | 247 | 0.0 | 0.0 | 0.00 | 0.00 | 0.00 | 71 | |
| 20260508100934 | 45 | 235 | 0.0 | 0.0 | 0.00 | 0.00 | 0.00 | 72 | |
| 20260508100433 | 45 | 245 | 0.0 | 0.0 | 0.00 | 0.00 | 0.00 | 72 | |
| 20260508095928 | 45 | 244 | 0.0 | 0.0 | 0.00 | 0.00 | 0.00 | 72 | |
| 20260508095426 | 45 | 240 | 0.0 | 0.0 | 0.00 | 0.00 | 0.00 | 72 | |
| 20260508094922 | 45 | 240 | 0.0 | 0.0 | 0.00 | 0.00 | 0.00 | 72 | |
| 20260508094419 | 45 | 238 | 0.0 | 0.0 | 0.00 | 0.00 | 0.00 | 72 | |
| 20260508093916 | 45 | 242 | 0.0 | 0.0 | 0.00 | 0.00 | 0.00 | 72 | |
| 20260508093414 | 45 | 255 | 0.0 | 0.0 | 0.00 | 0.00 | 0.00 | 71 | |
| 20260508092911 | 46 | 248 | 0.0 | 0.0 | 0.00 | 0.00 | 0.00 | 71 | |
| 20260508092409 | 46 | 249 | 0.0 | 0.0 | 0.00 | 0.00 | 0.00 | 71 | |
| 20260508091907 | 46 | 249 | 0.0 | 0.0 | 0.00 | 0.00 | 0.00 | 70 | |
| 20260508091403 | 46 | 241 | 0.0 | 0.0 | 0.00 | 0.00 | 0.00 | 70 | |
| 20260508090901 | 46 | 224 | 0.0 | 0.0 | 0.00 | 0.00 | 0.00 | 70 | |
| 20260508090400 | 46 | 254 | 0.0 | 0.0 | 0.00 | 0.00 | 0.00 | 69 | |
| 20260508085855 | 47 | 209 | 0.0 | 0.9 | 0.00 | 0.00 | 0.00 | 69 | |
| 20260508085352 | 46 | 247 | 0.0 | 0.0 | 0.00 | 0.00 | 0.00 | 69 | |
| 20260508084848 | 46 | 246 | 0.0 | 0.0 | 0.00 | 0.00 | 0.00 | 70 | |
| 20260508084345 | 46 | 249 | 0.0 | 0.0 | 0.00 | 0.00 | 0.00 | 69 | |
| 20260508083843 | 46 | 247 | 0.0 | 0.0 | 0.00 | 0.00 | 0.00 | 69 | |
| 20260508083340 | 47 | 247 | 0.0 | 0.0 | 0.00 | 0.00 | 0.00 | 69 | |
| 20260508082839 | 46 | 254 | 0.0 | 0.0 | 0.00 | 0.00 | 0.00 | 69 | |
| 20260508082338 | 47 | 256 | 0.0 | 0.0 | 0.00 | 0.00 | 0.00 | 69 | |
| 20260508081835 | 47 | 213 | 0.0 | 0.0 | 0.00 | 0.00 | 0.00 | 70 | |
| 20260508081331 | 46 | 225 | 0.0 | 0.0 | 0.00 | 0.00 | 0.00 | 70 | |
| 20260508080829 | 47 | 239 | 0.0 | 0.0 | 0.00 | 0.00 | 0.00 | 70 | |
| 20260508080326 | 47 | 261 | 0.0 | 0.0 | 0.00 | 0.00 | 0.00 | 69 | |
| 20260508075823 | 47 | 262 | 0.0 | 0.0 | 0.00 | 0.00 | 0.00 | 69 | |
| 20260508075320 | 47 | 269 | 0.0 | 0.0 | 0.00 | 0.00 | 0.00 | 69 | |
| 20260508074818 | 47 | 266 | 0.0 | 0.0 | 0.00 | 0.00 | 0.00 | 69 | |
| 20260508074314 | 47 | 272 | 0.0 | 0.0 | 0.00 | 0.00 | 0.00 | 69 | |
| 20260508073811 | 48 | 273 | 0.0 | 0.0 | 0.00 | 0.00 | 0.00 | 68 | |
| 20260508073309 | 48 | 273 | 0.0 | 0.0 | 0.00 | 0.00 | 0.00 | 67 | |
| 20260508072805 | 48 | 269 | 0.0 | 0.0 | 0.00 | 0.00 | 0.00 | 66 | |
| 20260508072306 | 48 | 273 | 0.0 | 0.0 | 0.00 | 0.00 | 0.00 | 67 | |
| 20260508071800 | 48 | 278 | 0.0 | 0.0 | 0.00 | 0.00 | 0.00 | 68 | |
| 20260508071258 | 48 | 331 | 0.0 | 0.0 | 0.00 | 0.00 | 0.00 | 68 | |
| 20260508070755 | 48 | 319 | 0.0 | 0.0 | 0.00 | 0.00 | 0.00 | 67 | |
| 20260508070254 | 49 | 323 | 0.0 | 0.0 | 0.00 | 0.00 | 0.00 | 68 | |
| 20260508065750 | 49 | 286 | 0.0 | 0.0 | 0.00 | 0.00 | 0.00 | 67 | |
| 20260508065248 | 49 | 288 | 0.0 | 0.0 | 0.00 | 0.00 | 0.00 | 67 | |
| 20260508064746 | 49 | 319 | 0.0 | 0.0 | 0.00 | 0.00 | 0.00 | 67 | |
| 20260508064244 | 49 | 316 | 0.0 | 0.0 | 0.00 | 0.00 | 0.00 | 69 | |
| 20260508063741 | 50 | 265 | 0.0 | 0.0 | 0.00 | 0.00 | 0.00 | 69 | |
| 20260508063239 | 50 | 329 | 0.0 | 0.0 | 0.00 | 0.00 | 0.00 | 67 | |
| 20260508062736 | 50 | 1 | 0.0 | 0.0 | 0.00 | 0.00 | 0.00 | 65 | |
| 20260508062233 | 50 | 353 | 0.0 | 0.0 | 0.00 | 0.00 | 0.00 | 63 | |
| 20260508061730 | 50 | 359 | 0.0 | 0.0 | 0.00 | 0.00 | 0.00 | 62 | |
| 20260508061227 | 50 | 19 | 0.0 | 1.7 | 0.00 | 0.00 | 0.00 | 63 | |
| 20260508060724 | 50 | 0 | 0.0 | 0.0 | 0.00 | 0.00 | 0.00 | 64 | |
| 20260508060221 | 50 | 354 | 0.0 | 0.0 | 0.00 | 0.00 | 0.00 | 65 | |
| 20260508055717 | 49 | 341 | 0.0 | 0.0 | 0.00 | 0.00 | 0.00 | 65 | |
| 20260508055214 | 50 | 338 | 0.0 | 0.0 | 0.00 | 0.00 | 0.00 | 65 | |
| 20260508054710 | 49 | 333 | 0.0 | 0.0 | 0.00 | 0.00 | 0.00 | 65 | |
| 20260508054208 | 50 | 306 | 0.0 | 0.0 | 0.00 | 0.00 | 0.00 | 64 | |
| 20260508053705 | 49 | 285 | 0.0 | 0.0 | 0.00 | 0.00 | 0.00 | 64 | |
| 20260508053202 | 49 | 301 | 0.0 | 0.0 | 0.00 | 0.00 | 0.00 | 64 | |
| 20260508052659 | 49 | 298 | 0.0 | 0.0 | 0.00 | 0.00 | 0.00 | 64 | |
| 20260508052156 | 49 | 301 | 0.0 | 0.0 | 0.00 | 0.00 | 0.00 | 65 | |
| 20260508051653 | 49 | 264 | 0.0 | 0.0 | 0.00 | 0.00 | 0.00 | 64 | |
| 20260508051148 | 49 | 289 | 0.0 | 0.0 | 0.00 | 0.00 | 0.00 | 65 | |
| 20260508050644 | 49 | 250 | 0.0 | 0.0 | 0.00 | 0.00 | 0.00 | 64 | |
| 20260508050142 | 49 | 277 | 0.0 | 0.0 | 0.00 | 0.00 | 0.00 | 64 | |
| 20260508045638 | 49 | 269 | 0.0 | 0.0 | 0.00 | 0.00 | 0.00 | 64 | |
| 20260508045136 | 49 | 265 | 0.0 | 0.0 | 0.00 | 0.00 | 0.00 | 63 | |
| 20260508044633 | 49 | 260 | 0.0 | 0.0 | 0.00 | 0.00 | 0.00 | 63 | |
| 20260508044129 | 49 | 292 | 0.0 | 0.0 | 0.00 | 0.00 | 0.00 | 63 | |
| 20260508043625 | 49 | 299 | 0.0 | 0.0 | 0.00 | 0.00 | 0.00 | 64 | |
| 20260508043123 | 49 | 255 | 0.0 | 0.0 | 0.00 | 0.00 | 0.00 | 64 | |
| 20260508042620 | 49 | 288 | 0.0 | 0.0 | 0.00 | 0.00 | 0.00 | 65 | |
| 20260508042117 | 49 | 295 | 0.0 | 0.0 | 0.00 | 0.00 | 0.00 | 65 | |
| 20260508041613 | 49 | 299 | 0.0 | 0.0 | 0.00 | 0.00 | 0.00 | 66 | |
| 20260508041110 | 49 | 293 | 0.0 | 0.0 | 0.00 | 0.00 | 0.00 | 65 | |
| 20260508040606 | 49 | 296 | 0.0 | 0.0 | 0.00 | 0.00 | 0.00 | 65 | |
| 20260508040104 | 49 | 233 | 0.0 | 0.0 | 0.00 | 0.00 | 0.00 | 65 | |
| 20260508035601 | 49 | 272 | 0.0 | 0.0 | 0.00 | 0.00 | 0.00 | 64 | |
| 20260508035058 | 49 | 278 | 0.0 | 0.0 | 0.00 | 0.00 | 0.00 | 65 | |
| 20260508034555 | 48 | 241 | 0.0 | 0.0 | 0.00 | 0.00 | 0.00 | 66 | |
| 20260508034052 | 48 | 246 | 0.0 | 0.0 | 0.00 | 0.00 | 0.00 | 66 | |
| 20260508033550 | 48 | 294 | 0.0 | 0.0 | 0.00 | 0.00 | 0.00 | 67 | |
| 20260508033048 | 48 | 312 | 0.0 | 0.0 | 0.00 | 0.00 | 0.00 | 67 | |
| 20260508032544 | 48 | 316 | 0.0 | 0.0 | 0.00 | 0.00 | 0.00 | 68 | |
| 20260508032042 | 48 | 315 | 0.0 | 0.0 | 0.00 | 0.00 | 0.00 | 66 | |
| 20260508031539 | 48 | 316 | 0.0 | 0.0 | 0.00 | 0.00 | 0.00 | 66 | |
| 20260508031034 | 48 | 303 | 0.0 | 0.0 | 0.00 | 0.00 | 0.00 | 65 | |
| 20260508030531 | 48 | 301 | 0.0 | 0.0 | 0.00 | 0.00 | 0.00 | 65 | |
| 20260508030030 | 48 | 306 | 0.0 | 0.0 | 0.00 | 0.00 | 0.00 | 65 | |
| 20260508025525 | 48 | 311 | 0.0 | 0.0 | 0.00 | 0.00 | 0.00 | 65 | |
| 20260508025022 | 47 | 317 | 0.0 | 0.0 | 0.00 | 0.00 | 0.00 | 66 | |
| 20260508024518 | 47 | 324 | 0.0 | 0.0 | 0.00 | 0.00 | 0.00 | 68 | |
| 20260508024015 | 46 | 324 | 0.0 | 0.0 | 0.00 | 0.00 | 0.00 | 69 | |
| 20260508023512 | 47 | 325 | 0.0 | 0.0 | 0.00 | 0.00 | 0.00 | 70 | |
| 20260508023009 | 47 | 324 | 0.0 | 0.0 | 0.00 | 0.00 | 0.00 | 69 | |
| 20260508022505 | 47 | 325 | 0.0 | 0.0 | 0.00 | 0.00 | 0.00 | 70 | |
| 20260508022002 | 47 | 325 | 0.0 | 0.0 | 0.00 | 0.00 | 0.00 | 69 | |
| 20260508021458 | 47 | 324 | 0.0 | 0.0 | 0.00 | 0.00 | 0.00 | 67 | |
| 20260508020954 | 48 | 324 | 0.0 | 0.0 | 0.00 | 0.00 | 0.00 | 66 | |
| 20260508020452 | 48 | 324 | 0.0 | 0.0 | 0.00 | 0.00 | 0.00 | 66 | |
| 20260508015948 | 48 | 324 | 0.0 | 0.0 | 0.00 | 0.00 | 0.00 | 64 | |
| 20260508015447 | 49 | 315 | 0.0 | 0.0 | 0.00 | 0.00 | 0.00 | 63 | |
| 20260508014943 | 49 | 314 | 0.0 | 0.0 | 0.00 | 0.00 | 0.00 | 65 | |
| 20260508014440 | 49 | 318 | 0.0 | 0.0 | 0.00 | 0.00 | 0.00 | 62 | |
| 20260508013936 | 49 | 318 | 0.0 | 0.0 | 0.00 | 0.00 | 0.00 | 60 | |
| 20260508013432 | 50 | 318 | 0.0 | 0.0 | 0.00 | 0.00 | 0.00 | 60 | |
| 20260508012930 | 50 | 318 | 0.0 | 0.0 | 0.00 | 0.00 | 0.00 | 60 | |
| 20260508012426 | 50 | 318 | 0.0 | 0.0 | 0.00 | 0.00 | 0.00 | 60 | |
| 20260508011924 | 50 | 318 | 0.0 | 0.0 | 0.00 | 0.00 | 0.00 | 61 | |
| 20260508011422 | 51 | 318 | 0.0 | 0.0 | 0.00 | 0.00 | 0.00 | 57 | |
| 20260508010919 | 51 | 318 | 0.0 | 0.0 | 0.00 | 0.00 | 0.00 | 57 | |
| 20260508010416 | 51 | 318 | 0.0 | 0.0 | 0.00 | 0.00 | 0.00 | 58 | |
| 20260508005913 | 51 | 318 | 0.0 | 0.0 | 0.00 | 0.00 | 0.00 | 54 | |
| 20260508005410 | 52 | 316 | 0.0 | 0.0 | 0.00 | 0.00 | 0.00 | 54 | |
| 20260508004906 | 52 | 316 | 0.0 | 0.0 | 0.00 | 0.00 | 0.00 | 53 | |
| 20260508004402 | 53 | 315 | 0.0 | 0.0 | 0.00 | 0.00 | 0.00 | 51 | |
| 20260508003859 | 53 | 315 | 0.0 | 0.0 | 0.00 | 0.00 | 0.00 | 50 | |
| 20260508003356 | 54 | 315 | 0.0 | 0.0 | 0.00 | 0.00 | 0.00 | 49 | |
| 20260508002853 | 54 | 324 | 0.0 | 0.0 | 0.00 | 0.00 | 0.00 | 48 | |
| 20260508002349 | 55 | 328 | 0.0 | 0.0 | 0.00 | 0.00 | 0.00 | 47 | |
| 20260508001846 | 55 | 328 | 0.0 | 0.0 | 0.00 | 0.00 | 0.00 | 47 | |
| 20260508001342 | 55 | 326 | 0.0 | 0.0 | 0.00 | 0.00 | 0.00 | 46 | |
| 20260508000838 | 56 | 318 | 0.0 | 0.0 | 0.00 | 0.00 | 0.00 | 45 | |
| 20260508000335 | 56 | 334 | 0.0 | 0.0 | 0.00 | 0.00 | 0.00 | 45 | |
| 20260507235831 | 57 | 335 | 0.0 | 0.0 | 0.00 | 0.00 | 0.00 | 44 | |
| 20260507235329 | 57 | 309 | 0.0 | 0.0 | 0.00 | 0.00 | 0.00 | 42 | |
| 20260507234826 | 57 | 230 | 0.0 | 0.9 | 0.00 | 0.00 | 0.00 | 42 | |
| 20260507234322 | 57 | 335 | 0.0 | 0.0 | 0.00 | 0.00 | 0.00 | 42 | |
| 20260507233819 | 57 | 359 | 0.0 | 0.9 | 0.00 | 0.00 | 0.00 | 41 | |
| 20260507233317 | 58 | 271 | 0.0 | 0.0 | 0.00 | 0.00 | 0.00 | 41 | |
| 20260507232815 | 59 | 329 | 0.0 | 0.9 | 0.00 | 0.00 | 0.00 | 41 | |
| 20260507232311 | 59 | 327 | 0.0 | 1.7 | 0.00 | 0.00 | 0.00 | 42 | |
| 20260507231808 | 59 | 287 | 0.0 | 2.6 | 0.00 | 0.00 | 0.00 | 40 | |
| 20260507231304 | 59 | 331 | 0.0 | 0.0 | 0.00 | 0.00 | 0.00 | 39 | |
| 20260507230801 | 59 | 300 | 0.0 | 2.6 | 0.00 | 0.00 | 0.00 | 39 | |
| 20260507230258 | 59 | 223 | 0.9 | 4.3 | 0.00 | 0.00 | 0.00 | 40 | |
| 20260507225758 | 59 | 319 | 0.0 | 1.7 | 0.00 | 0.00 | 0.00 | 41 | |
| 20260507225254 | 59 | 312 | 0.0 | 2.6 | 0.00 | 0.00 | 0.00 | 40 | |
| 20260507224750 | 59 | 10 | 2.6 | 7.0 | 0.00 | 0.00 | 0.00 | 39 | |
| 20260507224247 | 60 | 254 | 0.0 | 5.2 | 0.00 | 0.00 | 0.00 | 38 | |
| 20260507223743 | 59 | 325 | 0.0 | 0.0 | 0.00 | 0.00 | 0.00 | 38 | |
| 20260507223240 | 57 | 288 | 0.0 | 1.7 | 0.00 | 0.00 | 0.00 | 40 | |
| 20260507222737 | 58 | 10 | 0.9 | 1.7 | 0.00 | 0.00 | 0.00 | 40 | |
| 20260507222233 | 59 | 354 | 0.0 | 4.3 | 0.00 | 0.00 | 0.00 | 40 | |
| 20260507221730 | 59 | 318 | 0.0 | 1.7 | 0.00 | 0.00 | 0.00 | 40 | |
| 20260507221226 | 59 | 357 | 0.0 | 2.6 | 0.00 | 0.00 | 0.00 | 40 | |
| 20260507220723 | 58 | 3 | 0.0 | 0.0 | 0.00 | 0.00 | 0.00 | 40 | |
| 20260507220222 | 57 | 348 | 0.0 | 4.3 | 0.00 | 0.00 | 0.00 | 40 | |
| 20260507215717 | 57 | 311 | 0.0 | 0.9 | 0.00 | 0.00 | 0.00 | 40 | |
| 20260507215215 | 58 | 351 | 0.0 | 2.6 | 0.00 | 0.00 | 0.00 | 41 | |
| 20260507214712 | 57 | 323 | 0.9 | 2.6 | 0.00 | 0.00 | 0.00 | 41 | |
| 20260507214209 | 57 | 339 | 0.0 | 0.0 | 0.00 | 0.00 | 0.00 | 42 | |
| 20260507213704 | 58 | 297 | 0.0 | 2.6 | 0.00 | 0.00 | 0.00 | 40 | |
| 20260507213202 | 58 | 11 | 0.9 | 6.1 | 0.00 | 0.00 | 0.00 | 39 | |
| 20260507212657 | 59 | 244 | 0.0 | 7.8 | 0.00 | 0.00 | 0.00 | 38 | |
| 20260507212155 | 59 | 352 | 0.0 | 5.2 | 0.00 | 0.00 | 0.00 | 37 | |
| 20260507211651 | 60 | 322 | 0.0 | 2.6 | 0.00 | 0.00 | 0.00 | 39 | |
| 20260507211147 | 58 | 322 | 1.7 | 7.0 | 0.00 | 0.00 | 0.00 | 39 | |
| 20260507210645 | 59 | 22 | 0.9 | 7.0 | 0.00 | 0.00 | 0.00 | 40 | |
| 20260507210141 | 59 | 257 | 0.0 | 2.6 | 0.00 | 0.00 | 0.00 | 40 | |
| 20260507205638 | 58 | 341 | 2.6 | 2.6 | 0.00 | 0.00 | 0.00 | 39 | |
| 20260507205134 | 57 | 291 | 1.7 | 7.0 | 0.00 | 0.00 | 0.00 | 40 | |
| 20260507204631 | 57 | 316 | 0.0 | 2.6 | 0.00 | 0.00 | 0.00 | 42 | |
| 20260507204128 | 58 | 343 | 1.7 | 12.2 | 0.00 | 0.00 | 0.00 | 42 | |
| 20260507203626 | 58 | 326 | 0.9 | 2.6 | 0.00 | 0.00 | 0.00 | 42 | |
| 20260507203123 | 59 | 257 | 0.0 | 4.3 | 0.00 | 0.00 | 0.00 | 41 | |
| 20260507202619 | 57 | 336 | 0.0 | 6.1 | 0.00 | 0.00 | 0.00 | 44 | |
| 20260507202115 | 58 | 353 | 0.9 | 1.7 | 0.00 | 0.00 | 0.00 | 43 | |
| 20260507201610 | 58 | 9 | 0.9 | 5.2 | 0.00 | 0.00 | 0.00 | 43 | |
| 20260507201108 | 58 | 346 | 0.0 | 8.7 | 0.00 | 0.00 | 0.00 | 40 | |
| 20260507200603 | 56 | 340 | 0.0 | 1.7 | 0.00 | 0.00 | 0.00 | 45 | |
| 20260507200100 | 58 | 359 | 0.9 | 7.8 | 0.00 | 0.00 | 0.00 | 43 | |
| 20260507195557 | 58 | 335 | 2.6 | 4.3 | 0.00 | 0.00 | 0.00 | 42 | |
| 20260507195054 | 59 | 273 | 0.0 | 4.3 | 0.00 | 0.00 | 0.00 | 40 | |
| 20260507194550 | 58 | 296 | 2.6 | 11.3 | 0.00 | 0.00 | 0.00 | 41 | |
| 20260507194046 | 59 | 208 | 0.0 | 1.7 | 0.00 | 0.00 | 0.00 | 42 | |
| 20260507193543 | 57 | 317 | 0.9 | 2.6 | 0.00 | 0.00 | 0.00 | 42 | |
| 20260507193040 | 58 | 351 | 2.6 | 6.1 | 0.00 | 0.00 | 0.00 | 41 | |
| 20260507192536 | 58 | 348 | 0.0 | 4.3 | 0.00 | 0.00 | 0.00 | 43 | |
| 20260507192033 | 58 | 16 | 1.7 | 8.7 | 0.00 | 0.00 | 0.00 | 42 | |
| 20260507191529 | 59 | 351 | 1.7 | 1.7 | 0.00 | 0.00 | 0.00 | 42 | |
| 20260507191026 | 59 | 224 | 0.0 | 2.6 | 0.00 | 0.00 | 0.00 | 42 | |
| 20260507190523 | 57 | 339 | 1.7 | 6.1 | 0.00 | 0.00 | 0.00 | 45 | |
| 20260507190022 | 57 | 0 | 0.9 | 12.2 | 0.00 | 0.00 | 0.00 | 44 | |
| 20260507185520 | 58 | 300 | 1.7 | 5.2 | 0.00 | 0.00 | 0.00 | 44 | |
| 20260507185016 | 57 | 245 | 0.9 | 4.3 | 0.00 | 0.00 | 0.00 | 43 | |
| 20260507184515 | 57 | 326 | 0.9 | 9.6 | 0.00 | 0.00 | 0.00 | 45 | |
| 20260507184012 | 57 | 358 | 0.9 | 2.6 | 0.00 | 0.00 | 0.00 | 45 | |
| 20260507183508 | 57 | 339 | 1.7 | 6.1 | 0.00 | 0.00 | 0.00 | 46 | |
| 20260507183005 | 57 | 333 | 1.7 | 7.8 | 0.00 | 0.00 | 0.00 | 47 | |
| 20260507182501 | 57 | 309 | 0.0 | 11.3 | 0.00 | 0.00 | 0.00 | 47 | |
| 20260507181957 | 58 | 308 | 0.9 | 5.2 | 0.00 | 0.00 | 0.00 | 46 | |
| 20260507181454 | 58 | 3 | 0.0 | 4.3 | 0.00 | 0.00 | 0.00 | 44 | |
| 20260507180950 | 57 | 329 | 0.9 | 5.2 | 0.00 | 0.00 | 0.00 | 46 | |
| 20260507180447 | 56 | 354 | 6.1 | 12.2 | 0.00 | 0.00 | 0.00 | 49 | |
| 20260507175943 | 57 | 353 | 0.0 | 5.2 | 0.00 | 0.00 | 0.00 | 49 | |
| 20260507175440 | 57 | 356 | 0.0 | 6.1 | 0.00 | 0.00 | 0.00 | 49 | |
| 20260507174938 | 56 | 328 | 0.0 | 5.2 | 0.00 | 0.00 | 0.00 | 49 | |
| 20260507174435 | 57 | 293 | 1.7 | 2.6 | 0.00 | 0.00 | 0.00 | 46 | |
| 20260507173932 | 56 | 342 | 1.7 | 1.7 | 0.00 | 0.00 | 0.00 | 48 | |
| 20260507173429 | 57 | 294 | 1.7 | 7.8 | 0.00 | 0.00 | 0.00 | 47 | |
| 20260507172926 | 58 | 334 | 0.0 | 5.2 | 0.00 | 0.00 | 0.00 | 48 | |
| 20260507172422 | 56 | 268 | 0.0 | 1.7 | 0.00 | 0.00 | 0.00 | 48 | |
| 20260507171919 | 56 | 352 | 0.0 | 6.1 | 0.00 | 0.00 | 0.00 | 49 | |
| 20260507171415 | 56 | 345 | 0.0 | 4.3 | 0.00 | 0.00 | 0.00 | 49 |